Location: Bothell
(47.7630°N, 122.2040°W)
Time: 11:57:09
(UTC-07:00)

Amateur Radio Satellites - All Passes

Search period start: 27 September 2016 11:27
Search period end: 28 September 2016 11:27
Location: Bothell, 47.7630°N, 122.2040°W

Satellite Date Start Highest point End Downlink Frequencies (MHz)
Time Altitude Azimuth
BEESAT 3 27 Sep 11:27:11 11:29:36 16° 248° (WSW) 11:31:59 437.485
GONETS M04 27 Sep 11:28:40 11:35:49 27° 300° (WNW) 11:43:02
DELFI C3 27 Sep 11:39:26 11:43:14 40° 290° (WNW) 11:47:00 145.870
Cosmos 2499 27 Sep 11:41:27 11:46:20 19° 301° (WNW) 11:51:14 435.465 / 435.565
ANTELSAT 27 Sep 11:44:21 11:47:14 18° 269° (W) 11:50:08 437.575/2403.000
QB50P2 27 Sep 11:45:14 11:49:26 85° 77° (ENE) 11:53:41 145.880/145.840
HUMSAT D 27 Sep 11:45:45 11:50:00 71° 286° (WNW) 11:54:15 437.325/437.525
POLYITAN 1 27 Sep 11:47:28 11:51:40 85° 75° (ENE) 11:55:53 437.675
PCSat 27 Sep 11:57:56 12:01:49 19° 32° (NNE) 12:05:40 145.827
TIGRISAT 27 Sep 12:06:45 12:08:11 11° 273° (W) 12:09:36 435.000
Oscar 19 27 Sep 12:07:43 12:11:03 18° 57° (ENE) 12:14:24 437.125/150
DX 1 27 Sep 12:14:01 12:15:53 12° 88° (E) 12:17:45 434.975-435.025
ESTCUBE 1 27 Sep 12:16:52 12:21:12 41° 98° (E) 12:25:29 437.505/2401.250
FUNcube-1 27 Sep 12:17:11 12:18:23 11° 303° (WNW) 12:19:36 145.935
VELOX 1 27 Sep 12:19:03 12:22:31 22° 93° (E) 12:25:56 145.980
CUBEBUG 1 27 Sep 12:24:23 12:28:18 31° 96° (E) 12:32:09 437.445
DUCHIFAT 1 27 Sep 12:26:34 12:30:33 43° 262° (W) 12:34:33 145.980
QB50P1 27 Sep 12:28:14 12:32:08 36° 263° (W) 12:36:03 145.935-145.965
JAS-2 27 Sep 12:28:21 12:34:52 71° 258° (WSW) 12:42:18 435.910
BUGSAT 1 27 Sep 12:30:53 12:35:00 88° 257° (WSW) 12:39:06 437.445
POPSAT HIP 1 27 Sep 12:42:06 12:45:42 27° 265° (W) 12:49:19 437.405
NANOSAT C BR1 27 Sep 12:59:28 13:02:32 20° 268° (W) 13:05:37 145.865
AIST 2 27 Sep 13:00:16 13:04:28 75° 236° (SW) 13:08:40 435.215
Gurwin Techsat 1B 27 Sep 13:00:22 13:04:34 24° 60° (ENE) 13:08:47 435.225
PHONESAT 2.4 27 Sep 13:00:52 13:03:00 18° 172° (S) 13:05:08 2401.200-2431.200
SPROUT 27 Sep 13:07:34 13:11:34 38° 98° (E) 13:15:33 437.525
M-CUBED/EXP-1 PRIME 27 Sep 13:09:02 13:11:57 28° 103° (ESE) 13:14:50 437.505
AISAT 27 Sep 13:11:06 13:15:32 76° 104° (ESE) 13:19:54 437.250
AO-7 27 Sep 13:12:29 13:17:30 18° 39° (NE) 13:22:30 29.400- 29.500
YUBILEINY 27 Sep 13:16:53 13:24:27 31° 63° (ENE) 13:31:56 435.215
50 SAT 27 Sep 13:17:43 13:21:24 88° 283° (WNW) 13:25:04 437.505
UKube-1 27 Sep 13:20:36 13:24:47 45° 99° (E) 13:28:54 .
Cosmos 2491 27 Sep 13:22:36 13:25:53 13° 69° (ENE) 13:29:10 435.465 / 435.565
QB50P2 27 Sep 13:25:12 13:25:51 10° 273° (W) 13:26:29 145.880/145.840
POLYITAN 1 27 Sep 13:27:33 13:28:04 10° 273° (W) 13:28:35 437.675
PCSat 27 Sep 13:40:44 13:46:11 71° 53° (NE) 13:51:36 145.827
Oscar 19 27 Sep 13:44:32 13:49:45 82° 256° (WSW) 13:54:59 437.125/150
DX 1 27 Sep 13:48:15 13:52:37 75° 286° (WNW) 13:56:56 434.975-435.025
ESTCUBE 1 27 Sep 13:54:05 13:57:48 25° 296° (WNW) 14:01:30 437.505/2401.250
VELOX 1 27 Sep 13:54:59 13:59:10 42° 291° (WNW) 14:03:19 145.980
CUBEBUG 1 27 Sep 14:00:45 14:04:31 29° 294° (WNW) 14:08:15 437.445
AUBIESAT-1 27 Sep 14:06:13 14:09:31 64° 292° (WNW) 14:12:47 437.475
JAS-2 27 Sep 14:18:07 14:21:26 14° 280° (W) 14:24:55 435.910
Cosmos 2504 27 Sep 14:26:57 14:33:18 30° 66° (ENE) 14:39:56 435.465 / 435.565
TISAT 1 27 Sep 14:29:28 14:33:36 59° 101° (E) 14:37:43 437.305
ITUPSAT 1 27 Sep 14:35:46 14:38:40 16° 89° (E) 14:41:33 437.325
PHONESAT 2.4 27 Sep 14:36:27 14:38:34 18° 189° (S) 14:40:41 2401.200-2431.200
ITAMSAT 1 27 Sep 14:36:58 14:41:54 47° 68° (ENE) 14:46:52 435.822/435.867
Gurwin Techsat 1B 27 Sep 14:38:57 14:44:10 57° 259° (W) 14:49:25 435.225
SPROUT 27 Sep 14:43:54 14:47:19 24° 296° (WNW) 14:50:43 437.525
M-CUBED/EXP-1 PRIME 27 Sep 14:43:56 14:46:23 19° 301° (WNW) 14:48:48 437.505
SWISSCUBE 27 Sep 14:48:26 14:52:15 23° 93° (E) 14:56:03 437.505
AISAT 27 Sep 14:49:01 14:51:26 15° 302° (WNW) 14:53:49 437.250
UKube-1 27 Sep 14:57:15 15:00:33 22° 297° (WNW) 15:03:51 .
AO-7 27 Sep 15:00:33 15:08:37 58° 62° (ENE) 15:16:42 29.400- 29.500
BEESAT 27 Sep 15:01:16 15:05:22 27° 94° (E) 15:09:25 436.000
Cosmos 2491 27 Sep 15:12:09 15:20:42 60° 91° (E) 15:29:21 435.465 / 435.565
YUBILEINY 27 Sep 15:13:23 15:22:01 70° 266° (W) 15:30:36 435.215
PCSat 27 Sep 15:25:07 15:29:03 21° 253° (WSW) 15:32:56 145.827
DX 1 27 Sep 15:27:12 15:28:01 10° 305° (NW) 15:28:51 434.975-435.025
AIST 1 27 Sep 15:27:54 15:30:01 13° 64° (ENE) 15:32:07
Oscar 19 27 Sep 15:27:59 15:29:53 12° 274° (W) 15:31:47 437.125/150
SO-50 27 Sep 15:38:50 15:43:14 37° 118° (ESE) 15:47:38 436.795
O/OREOS (USA 219) 27 Sep 15:39:26 15:41:45 14° 42° (NE) 15:44:03 437.305
BRITE-PL 27 Sep 15:45:04 15:45:05 10° 51° (NE) 15:45:07 437.365/2234.400
HORYU 2 27 Sep 15:46:37 15:48:19 12° 56° (NE) 15:50:02 437.375
TISAT 1 27 Sep 16:06:12 16:08:49 16° 299° (WNW) 16:11:27 437.305
ITUPSAT 1 27 Sep 16:12:12 16:17:00 71° 288° (WNW) 16:21:48 437.325
ITAMSAT 1 27 Sep 16:17:15 16:21:35 27° 266° (W) 16:25:56 435.822/435.867
Cosmos 2504 27 Sep 16:19:56 16:27:10 62° 267° (W) 16:34:52 435.465 / 435.565
NOAA 15 27 Sep 16:22:49 16:24:17 11° 50° (NE) 16:25:45 137.62
SWISSCUBE 27 Sep 16:25:39 16:30:17 48° 291° (WNW) 16:34:53 437.505
MOZHAYETS 4 27 Sep 16:30:37 16:34:59 39° 97° (E) 16:39:19
Cubesat XI-IV 27 Sep 16:37:13 16:39:08 12° 51° (NE) 16:41:02 437.490
CUTE-I 27 Sep 16:37:25 16:39:23 12° 51° (NE) 16:41:21 437.470
BEESAT 27 Sep 16:38:47 16:43:15 40° 293° (WNW) 16:47:44 436.000
AO-7 27 Sep 16:54:08 17:01:43 38° 263° (W) 17:09:21 29.400- 29.500
KKS-1 27 Sep 16:58:27 17:02:42 44° 99° (E) 17:06:56 437.445
AIST 1 27 Sep 17:03:52 17:08:11 71° 263° (W) 17:12:24
GOMX 1 27 Sep 17:09:40 17:13:40 22° 62° (ENE) 17:17:32 467.674
Cosmos 2491 27 Sep 17:10:05 17:18:02 37° 294° (WNW) 17:26:05 435.465 / 435.565
YUBILEINY 27 Sep 17:12:39 17:17:05 15° 289° (WNW) 17:21:31 435.215
NOAA 18 27 Sep 17:13:28 17:17:25 21° 57° (ENE) 17:21:20 137.9125
BRITE-PL 27 Sep 17:16:55 17:22:24 51° 70° (ENE) 17:27:45 437.365/2234.400
O/OREOS (USA 219) 27 Sep 17:17:23 17:22:01 74° 63° (ENE) 17:26:36 437.305
SO-50 27 Sep 17:19:10 17:23:43 40° 317° (NW) 17:28:13 436.795
HORYU 2 27 Sep 17:19:46 17:24:10 86° 74° (ENE) 17:28:37 437.375
STARS 27 Sep 17:32:56 17:37:11 50° 100° (E) 17:41:26 437.465
DOVE 4 27 Sep 17:33:46 17:36:43 16° 60° (ENE) 17:39:35 437.250
GONETS M04 27 Sep 17:40:40 17:44:16 13° 45° (NE) 17:47:51
CUSAT 1 27 Sep 17:45:48 17:46:01 10° 69° (ENE) 17:46:13 437.405
CUBESAT XI-V 27 Sep 17:49:33 17:53:54 35° 96° (E) 17:58:10 437.345
ITUPSAT 1 27 Sep 17:52:25 17:53:59 11° 306° (NW) 17:55:33 437.325
NOAA 15 27 Sep 17:57:48 18:03:00 59° 70° (ENE) 18:08:15 137.62
MOZHAYETS 4 27 Sep 18:08:05 18:12:01 28° 295° (WNW) 18:15:56
Cubesat XI-IV 27 Sep 18:12:58 18:18:12 64° 71° (ENE) 18:23:29 437.490
CUTE-I 27 Sep 18:13:12 18:18:26 65° 71° (ENE) 18:23:44 437.470
Cosmos 2504 27 Sep 18:16:50 18:19:03 11° 287° (WNW) 18:21:18 435.465 / 435.565
HO-68 27 Sep 18:17:53 18:23:14 23° 52° (NE) 18:28:35 435.675
LilacSat-2 27 Sep 18:18:42 18:22:26 67° 74° (ENE) 18:26:12 437.200
KKS-1 27 Sep 18:35:33 18:39:01 23° 297° (WNW) 18:42:27 437.445
GOMX 1 27 Sep 18:46:02 18:51:22 62° 259° (W) 18:56:28 467.674
CINEMA 3 27 Sep 18:47:12 18:50:24 20° 64° (ENE) 18:53:31 145.822/145.860
NOAA 18 27 Sep 18:52:03 18:57:31 74° 256° (WSW) 19:03:00 137.9125
BRITE-PL 27 Sep 18:56:11 19:01:03 28° 267° (W) 19:05:50 437.365/2234.400
O/OREOS (USA 219) 27 Sep 18:58:24 19:00:48 14° 262° (W) 19:03:12 437.305
HORYU 2 27 Sep 19:00:04 19:01:21 11° 272° (W) 19:02:39 437.375
SO-50 27 Sep 19:02:59 19:05:27 14° 340° (NNW) 19:07:53 436.795
CUTE 1.7 + AOD 2 27 Sep 19:07:39 19:10:56 22° 64° (ENE) 19:14:15 437.475
CANX-2 27 Sep 19:08:36 19:12:05 26° 65° (ENE) 19:15:38 2200.000
DOVE 4 27 Sep 19:08:54 19:13:55 78° 257° (WSW) 19:18:39 437.250
DANDE 27 Sep 19:09:35 19:13:04 17° 76° (ENE) 19:17:04 436.750
STARS 27 Sep 19:10:01 19:13:14 20° 298° (WNW) 19:16:25 437.465
SEEDS 27 Sep 19:10:06 19:12:54 17° 62° (ENE) 19:15:43 437.485
CUSAT 1 27 Sep 19:19:47 19:25:58 52° 91° (E) 19:33:24 437.405
RS-15 27 Sep 19:20:33 19:30:06 31° 103° (ESE) 19:39:59 29.354- 29.394
CUBESAT XI-V 27 Sep 19:27:05 19:31:11 30° 295° (WNW) 19:35:15 437.345
Cosmos 2499 27 Sep 19:30:46 19:37:41 40° 70° (ENE) 19:45:05 435.465 / 435.565
AAUSAT CUBESAT 2 27 Sep 19:33:25 19:36:06 17° 62° (ENE) 19:38:48 437.432
GONETS M04 27 Sep 19:35:14 19:43:48 50° 72° (ENE) 19:52:15
NOAA 15 27 Sep 19:39:08 19:43:10 22° 268° (W) 19:47:15 137.62
Cubesat XI-IV 27 Sep 19:54:54 19:58:45 20° 270° (W) 20:02:36 437.490
CUTE-I 27 Sep 19:55:10 19:58:58 20° 270° (W) 20:02:47 437.470
CUBEBUG 2 27 Sep 19:55:38 19:59:07 26° 66° (ENE) 20:02:35 437.445
LilacSat-2 27 Sep 19:56:11 19:57:11 11° 272° (W) 19:58:12 437.200
HO-68 27 Sep 20:02:56 20:10:06 89° 239° (WSW) 20:17:20 435.675
FUNcube-1 27 Sep 20:03:28 20:05:36 14° 60° (ENE) 20:07:44 145.935
UWE-3 27 Sep 20:14:04 20:17:34 27° 66° (ENE) 20:21:05 435.000/436.395/437.385
COMPASS 1 27 Sep 20:15:50 20:19:53 52° 72° (ENE) 20:24:00 437.405
CINEMA 3 27 Sep 20:22:57 20:27:16 49° 261° (W) 20:31:27 145.822/145.860
STRAND 1 27 Sep 20:24:25 20:29:31 59° 101° (E) 20:34:36 437.568
NOAA 18 27 Sep 20:37:39 20:39:07 11° 274° (W) 20:40:36 137.9125
Oscar 11 27 Sep 20:41:37 20:45:30 34° 68° (ENE) 20:49:25 145.826/435.025
CUTE 1.7 + AOD 2 27 Sep 20:42:32 20:46:32 41° 262° (W) 20:50:37 437.475
ZACube-1 27 Sep 20:43:28 20:47:13 34° 68° (ENE) 20:51:00 437.345
CANX-2 27 Sep 20:43:55 20:47:49 35° 264° (W) 20:51:46 2200.000
SEEDS 27 Sep 20:44:04 20:48:12 56° 260° (W) 20:52:23 437.485
SO-50 27 Sep 20:47:28 20:48:01 10° 5° (N) 20:48:34 436.795
DANDE 27 Sep 20:49:05 20:54:27 88° 281° (WNW) 21:01:36 436.750
DOVE 4 27 Sep 20:51:39 20:52:17 10° 274° (W) 20:52:54 437.250
DELFI C3 27 Sep 20:54:28 20:57:20 19° 63° (ENE) 21:00:13 145.870
PRISM 27 Sep 20:56:35 20:58:17 12° 89° (E) 21:00:00 437.425
CUSAT 1 27 Sep 21:02:09 21:08:17 38° 295° (WNW) 21:15:27 437.405
HUMSAT D 27 Sep 21:06:43 21:08:57 14° 60° (ENE) 21:11:12 437.325/437.525
AAUSAT CUBESAT 2 27 Sep 21:07:04 21:11:10 57° 260° (W) 21:15:19 437.432
AO-85 27 Sep 21:19:25 21:24:07 36° 118° (ESE) 21:28:33 145.980
Cosmos 2499 27 Sep 21:23:51 21:30:57 48° 270° (W) 21:38:34 435.465 / 435.565
RS-15 27 Sep 21:29:23 21:41:09 87° 308° (NW) 21:53:32 29.354- 29.394
CUBEBUG 2 27 Sep 21:31:53 21:35:40 32° 264° (W) 21:39:26 437.445
GONETS M04 27 Sep 21:32:24 21:40:30 43° 274° (W) 21:48:32
FUNcube-1 27 Sep 21:37:13 21:41:19 70° 258° (WSW) 21:45:29 145.935
ISS 27 Sep 21:40:19 21:43:31 54° 150° (SSE) 21:46:44 145.825
UWE-3 27 Sep 21:50:16 21:53:59 31° 264° (W) 21:57:41 435.000/436.395/437.385
COMPASS 1 27 Sep 21:53:04 21:55:46 17° 270° (W) 21:58:30 437.405
HO-68 27 Sep 21:53:57 21:58:47 19° 272° (W) 22:03:40 435.675
STRAND 1 27 Sep 22:04:21 22:08:19 23° 300° (WNW) 22:12:17 437.568
TIGRISAT 27 Sep 22:16:09 22:18:06 13° 88° (E) 22:20:04 435.000
Oscar 11 27 Sep 22:18:01 22:21:41 27° 266° (W) 22:25:23 145.826/435.025
ZACube-1 27 Sep 22:20:14 22:23:36 24° 266° (W) 22:26:59 437.345
SO-50 27 Sep 22:26:54 22:30:20 20° 30° (NNE) 22:33:42 436.795
M-CUBED/EXP-1 PRIME 27 Sep 22:27:15 22:27:49 10° 53° (NE) 22:28:22 437.505
DELFI C3 27 Sep 22:28:02 22:31:52 44° 261° (W) 22:35:46 145.870
PRISM 27 Sep 22:29:56 22:34:06 71° 286° (WNW) 22:38:11 437.425
DANDE 27 Sep 22:34:27 22:38:40 19° 308° (NW) 22:43:34 436.750
AISAT 27 Sep 22:37:37 22:39:56 14° 58° (ENE) 22:42:15 437.250
HUMSAT D 27 Sep 22:40:00 22:44:04 67° 259° (WSW) 22:48:11 437.325/437.525
CUSAT 1 27 Sep 22:52:19 22:52:57 10° 320° (NW) 22:53:35 437.405
UNISAT 6 27 Sep 22:55:12 22:59:10 32° 96° (E) 23:03:12 437.425
AO-85 27 Sep 22:59:42 23:04:33 43° 316° (NW) 23:09:04 145.980
DX 1 27 Sep 23:12:16 23:15:17 19° 61° (ENE) 23:18:18 434.975-435.025
ISS 27 Sep 23:16:54 23:20:05 47° 349° (N) 23:23:17 145.825
VELOX 1 27 Sep 23:19:18 23:23:12 31° 66° (ENE) 23:27:06 145.980
ESTCUBE 1 27 Sep 23:19:19 23:23:46 57° 71° (ENE) 23:28:15 437.505/2401.250
AUBIESAT-1 27 Sep 23:21:08 23:24:29 27° 62° (ENE) 23:27:40 437.475
CUBEBUG 1 27 Sep 23:23:14 23:27:23 41° 69° (ENE) 23:31:31 437.445
QB50P2 27 Sep 23:29:05 23:30:13 11° 87° (E) 23:31:20 145.880/145.840
ANTELSAT 27 Sep 23:30:21 23:34:45 72° 102° (ESE) 23:39:14 437.575/2403.000
POLYITAN 1 27 Sep 23:31:17 23:32:25 11° 87° (E) 23:33:32 437.675
JAS-2 27 Sep 23:35:01 23:40:30 20° 84° (E) 23:45:50 435.910
RS-15 27 Sep 23:44:17 23:55:29 42° 337° (NNW) 00:07:04 29.354- 29.394
TIGRISAT 27 Sep 23:50:55 23:55:19 76° 285° (WNW) 23:59:46 435.000
50 SAT 27 Sep 23:57:11 00:00:47 65° 74° (ENE) 00:04:26 437.505
M-CUBED/EXP-1 PRIME 27 Sep 23:57:44 00:01:49 82° 69° (ENE) 00:05:37 437.505
SPROUT 28 Sep 00:04:03 00:08:06 45° 71° (ENE) 00:12:12 437.525
SO-50 28 Sep 00:06:53 00:11:32 83° 51° (NE) 00:16:02 436.795
DUCHIFAT 1 28 Sep 00:07:26 00:10:46 22° 94° (E) 00:14:05 145.980
QB50P1 28 Sep 00:09:25 00:13:00 27° 95° (E) 00:16:35 145.935-145.965
AISAT 28 Sep 00:11:21 00:15:48 81° 255° (WSW) 00:20:17 437.250
UKube-1 28 Sep 00:18:01 00:22:17 59° 71° (ENE) 00:26:33 .
POPSAT HIP 1 28 Sep 00:22:44 00:26:37 35° 97° (E) 00:30:30 437.405
UNISAT 6 28 Sep 00:32:02 00:35:50 30° 294° (WNW) 00:39:43 437.425
NANOSAT C BR1 28 Sep 00:38:54 00:43:00 50° 100° (E) 00:47:06 145.865
AO-85 28 Sep 00:43:40 00:46:09 14° 337° (NNW) 00:48:33 145.980
DX 1 28 Sep 00:46:46 00:51:05 56° 259° (W) 00:55:25 434.975-435.025
ISS 28 Sep 00:53:46 00:56:57 44° 10° (N) 01:00:07 145.825
AUBIESAT-1 28 Sep 00:55:22 00:58:54 29° 257° (WSW) 01:02:14 437.475
VELOX 1 28 Sep 00:55:38 00:59:37 32° 264° (W) 01:03:37 145.980
ESTCUBE 1 28 Sep 00:57:52 01:00:56 18° 269° (W) 01:04:02 437.505/2401.250
CUBEBUG 1 28 Sep 01:00:15 01:03:49 23° 267° (W) 01:07:22 437.445
QB50P2 28 Sep 01:02:21 01:06:35 82° 285° (WNW) 01:10:49 145.880/145.840
POLYITAN 1 28 Sep 01:04:33 01:08:47 82° 286° (WNW) 01:13:01 437.675
ANTELSAT 28 Sep 01:08:25 01:10:58 15° 300° (WNW) 01:13:32 437.575/2403.000
Cosmos 2491 28 Sep 01:18:15 01:26:17 36° 66° (ENE) 01:34:15 435.465 / 435.565
JAS-2 28 Sep 01:18:39 01:26:36 84° 104° (ESE) 01:34:14 435.910
BEESAT 3 28 Sep 01:19:13 01:22:46 35° 119° (ESE) 01:26:23 437.485
TISAT 1 28 Sep 01:23:59 01:28:09 68° 73° (ENE) 01:32:19 437.305
TIGRISAT 28 Sep 01:30:22 01:31:15 11° 304° (NW) 01:32:10 435.000
50 SAT 28 Sep 01:33:57 01:34:43 11° 272° (W) 01:35:29 437.505
M-CUBED/EXP-1 PRIME 28 Sep 01:36:07 01:36:44 10° 264° (W) 01:37:20 437.505
SPROUT 28 Sep 01:41:10 01:44:17 20° 268° (W) 01:47:25 437.525
DUCHIFAT 1 28 Sep 01:42:42 01:46:35 38° 291° (WNW) 01:50:28 145.980
BUGSAT 1 28 Sep 01:44:28 01:48:30 82° 286° (WNW) 01:52:32 437.445
QB50P1 28 Sep 01:45:02 01:48:48 32° 293° (WNW) 01:52:34 145.935-145.965
ITUPSAT 1 28 Sep 01:45:20 01:49:20 27° 63° (ENE) 01:53:22 437.325
SO-50 28 Sep 01:48:54 01:51:20 14° 250° (WSW) 01:53:43 436.795
Oscar 19 28 Sep 01:53:05 01:57:28 27° 94° (E) 02:01:48 437.125/150
UKube-1 28 Sep 01:56:02 01:58:42 16° 269° (W) 02:01:22 .
SWISSCUBE 28 Sep 01:57:52 02:02:16 39° 67° (ENE) 02:06:42 437.505
POPSAT HIP 1 28 Sep 01:58:48 02:02:16 25° 295° (WNW) 02:05:43 437.405
RS-15 28 Sep 02:00:56 02:12:02 37° 11° (N) 02:23:12 29.354- 29.394
BEESAT 28 Sep 02:10:41 02:15:12 45° 69° (ENE) 02:19:46 436.000
BEESAT 2 28 Sep 02:14:33 02:18:28 65° 123° (ESE) 02:22:26 435.950
NANOSAT C BR1 28 Sep 02:15:28 02:18:24 19° 298° (WNW) 02:21:20 145.865
YUBILEINY 28 Sep 02:23:12 02:30:28 31° 81° (E) 02:37:43 435.215
ISS 28 Sep 02:30:18 02:33:34 65° 208° (SSW) 02:36:50 145.825
QB50P2 28 Sep 02:40:44 02:41:40 11° 304° (WNW) 02:42:37 145.880/145.840
POLYITAN 1 28 Sep 02:42:57 02:43:53 11° 303° (WNW) 02:44:49 437.675
ITAMSAT 1 28 Sep 02:48:14 02:50:17 12° 86° (E) 02:52:21 435.822/435.867
Gurwin Techsat 1B 28 Sep 02:51:34 02:56:40 44° 99° (E) 03:01:43 435.225
BEESAT 3 28 Sep 02:56:57 03:00:28 31° 318° (NW) 03:04:01 437.485
AO-7 28 Sep 03:01:03 03:04:17 12° 83° (E) 03:07:30 29.400- 29.500
TISAT 1 28 Sep 03:02:18 03:04:15 13° 271° (W) 03:06:13 437.305
JAS-2 28 Sep 03:04:28 03:10:46 28° 305° (NW) 03:16:58 435.910
Cosmos 2504 28 Sep 03:12:02 03:17:02 20° 79° (E) 03:21:57 435.465 / 435.565
Cosmos 2491 28 Sep 03:14:59 03:23:38 61° 269° (W) 03:32:13 435.465 / 435.565
ITUPSAT 1 28 Sep 03:22:30 03:27:00 41° 262° (W) 03:31:33 437.325
Oscar 19 28 Sep 03:32:04 03:36:59 45° 292° (WNW) 03:41:51 437.125/150
MOZHAYETS 4 28 Sep 03:35:30 03:39:58 54° 71° (ENE) 03:44:28
SWISSCUBE 28 Sep 03:36:04 03:40:09 28° 265° (W) 03:44:17 437.505
BEESAT 28 Sep 03:49:23 03:53:12 24° 267° (W) 03:57:03 436.000
BEESAT 2 28 Sep 03:53:36 03:56:40 21° 324° (NW) 03:59:46 435.950
KKS-1 28 Sep 03:59:25 04:03:49 63° 73° (ENE) 04:08:14 437.445
ISS 28 Sep 04:08:10 04:09:32 12° 226° (SW) 04:10:54 145.825
AO-85 28 Sep 04:08:12 04:11:00 16° 27° (NNE) 04:13:42 145.980
CUSAT 1 28 Sep 04:10:04 04:13:50 14° 46° (NE) 04:17:26 437.405
RS-15 28 Sep 04:15:08 04:27:28 64° 42° (NE) 04:39:38 29.354- 29.394
YUBILEINY 28 Sep 04:17:50 04:26:35 69° 283° (WNW) 04:35:21 435.215
ITAMSAT 1 28 Sep 04:25:18 04:30:34 83° 105° (ESE) 04:35:47 435.822/435.867
PCSat 28 Sep 04:26:12 04:30:55 31° 111° (ESE) 04:35:39 145.827
Gurwin Techsat 1B 28 Sep 04:31:51 04:36:27 30° 297° (WNW) 04:41:02 435.225
STARS 28 Sep 04:32:29 04:36:50 68° 73° (ENE) 04:41:12 437.465
AIST 2 28 Sep 04:38:35 04:42:40 76° 127° (SE) 04:46:50 435.215
AO-7 28 Sep 04:50:35 04:58:49 62° 104° (ESE) 05:07:00 29.400- 29.500
CUBESAT XI-V 28 Sep 04:55:46 05:00:19 50° 70° (ENE) 05:04:53 437.345
Cosmos 2504 28 Sep 05:02:08 05:09:31 81° 280° (W) 05:16:43 435.465 / 435.565
HORYU 2 28 Sep 05:08:57 05:10:56 13° 88° (E) 05:12:55 437.375
MOZHAYETS 4 28 Sep 05:14:13 05:17:28 19° 269° (W) 05:20:44
Cosmos 2491 28 Sep 05:15:03 05:18:28 13° 291° (WNW) 05:21:54 435.465 / 435.565
BRITE-PL 28 Sep 05:21:32 05:22:45 11° 83° (E) 05:23:57 437.365/2234.400
AIST 1 28 Sep 05:36:11 05:40:28 55° 95° (E) 05:44:46
KKS-1 28 Sep 05:38:08 05:40:48 16° 270° (W) 05:43:29 437.445
DANDE 28 Sep 05:40:46 05:47:36 27° 59° (ENE) 05:54:18 436.750
AO-85 28 Sep 05:48:00 05:52:16 73° 50° (NE) 05:56:14 145.980
CUSAT 1 28 Sep 05:50:20 05:58:01 51° 70° (ENE) 06:04:38 437.405
ITAMSAT 1 28 Sep 06:06:03 06:09:23 17° 304° (WNW) 06:12:43 435.822/435.867
STRAND 1 28 Sep 06:06:37 06:10:09 19° 58° (ENE) 06:13:42 437.568
PCSat 28 Sep 06:08:52 06:14:07 49° 311° (NW) 06:19:25 145.827
NOAA 15 28 Sep 06:10:37 06:13:59 17° 89° (E) 06:17:19 137.62
STARS 28 Sep 06:11:21 06:13:40 14° 271° (W) 06:15:59 437.465
AIST 2 28 Sep 06:18:32 06:21:39 20° 326° (NW) 06:24:48 435.215
YUBILEINY 28 Sep 06:19:50 06:25:21 18° 308° (NW) 06:30:52 435.215
Cubesat XI-IV 28 Sep 06:27:30 06:31:20 20° 90° (E) 06:35:09 437.490
CUTE-I 28 Sep 06:27:32 06:31:24 20° 91° (E) 06:35:15 437.470
RS-15 28 Sep 06:28:09 06:39:48 51° 248° (WSW) 06:51:14 29.354- 29.394
CUBESAT XI-V 28 Sep 06:34:24 06:37:58 21° 269° (W) 06:41:34 437.345
HORYU 2 28 Sep 06:43:34 06:48:02 77° 286° (WNW) 06:52:29 437.375
AO-7 28 Sep 06:43:50 06:51:15 38° 305° (NW) 06:58:40 29.400- 29.500
GOMX 1 28 Sep 06:45:15 06:49:09 29° 94° (E) 06:52:51 467.674
BRITE-PL 28 Sep 06:57:13 07:02:09 88° 99° (E) 07:06:41 437.365/2234.400
Cosmos 2504 28 Sep 06:59:34 07:04:10 17° 303° (WNW) 07:08:44 435.465 / 435.565
DOVE 4 28 Sep 07:05:20 07:08:25 19° 91° (E) 07:11:27 437.250
NOAA 18 28 Sep 07:10:44 07:15:45 36° 97° (E) 07:20:44 137.9125
AIST 1 28 Sep 07:15:33 07:18:27 17° 294° (WNW) 07:21:21
LilacSat-2 28 Sep 07:22:43 07:26:32 63° 102° (ESE) 07:30:21 437.200
DANDE 28 Sep 07:23:00 07:31:27 88° 261° (W) 07:39:27 436.750
HO-68 28 Sep 07:29:06 07:32:37 14° 85° (E) 07:36:08 435.675
AO-85 28 Sep 07:30:00 07:32:02 13° 251° (WSW) 07:34:00 145.980
CUSAT 1 28 Sep 07:32:44 07:39:50 39° 273° (W) 07:45:59 437.405
O/OREOS (USA 219) 28 Sep 07:32:59 07:37:18 44° 109° (ESE) 07:41:41 437.305
STRAND 1 28 Sep 07:43:43 07:48:48 71° 257° (WSW) 07:53:56 437.568
PRISM 28 Sep 07:48:56 07:51:27 16° 60° (ENE) 07:53:59 437.425
NOAA 15 28 Sep 07:49:02 07:54:22 76° 287° (WNW) 07:59:38 137.62
PCSat 28 Sep 07:55:42 07:58:52 15° 334° (NNW) 08:02:02 145.827
BEESAT 3 28 Sep 07:56:12 07:58:26 14° 29° (NNE) 08:00:40 437.485
Cubesat XI-IV 28 Sep 08:06:34 08:11:54 66° 289° (WNW) 08:17:12 437.490
CUTE-I 28 Sep 08:06:36 08:11:55 66° 289° (WNW) 08:17:13 437.470
Cosmos 2499 28 Sep 08:13:28 08:19:02 26° 82° (E) 08:24:35 435.465 / 435.565
CINEMA 3 28 Sep 08:14:03 08:17:37 27° 95° (E) 08:21:15 145.822/145.860
HORYU 2 28 Sep 08:22:32 08:23:50 11° 305° (NW) 08:25:07 437.375
GOMX 1 28 Sep 08:23:19 08:27:16 31° 294° (WNW) 08:31:02 467.674
CUTE 1.7 + AOD 2 28 Sep 08:24:02 08:27:41 26° 94° (E) 08:31:19 437.475
SEEDS 28 Sep 08:25:07 08:28:15 19° 92° (E) 08:31:21 437.485
CANX-2 28 Sep 08:25:14 08:29:06 31° 96° (E) 08:32:55 2200.000
BRITE-PL 28 Sep 08:37:17 08:39:50 14° 305° (NW) 08:42:18 437.365/2234.400
AO-7 28 Sep 08:38:53 08:41:43 12° 329° (NNW) 08:44:33 29.400- 29.500
GONETS M04 28 Sep 08:40:20 08:48:44 51° 89° (E) 08:57:10
DOVE 4 28 Sep 08:42:23 08:46:23 42° 290° (WNW) 08:50:17 437.250
AAUSAT CUBESAT 2 28 Sep 08:46:39 08:49:33 18° 91° (E) 08:52:27 437.432
RS-15 28 Sep 08:46:41 08:48:57 11° 271° (W) 08:51:13 29.354- 29.394
NOAA 18 28 Sep 08:51:24 08:56:26 39° 295° (WNW) 09:01:27 137.9125
BEESAT 2 28 Sep 08:52:09 08:55:14 20° 35° (NE) 08:58:18 435.950
LilacSat-2 28 Sep 08:58:28 09:00:22 13° 299° (WNW) 09:02:15 437.200
ANTELSAT 28 Sep 08:58:56 09:00:35 12° 57° (ENE) 09:02:15 437.575/2403.000
DANDE 28 Sep 09:07:04 09:13:11 23° 280° (W) 09:19:07 436.750
O/OREOS (USA 219) 28 Sep 09:13:02 09:16:54 26° 308° (NW) 09:20:49 437.305
HO-68 28 Sep 09:14:26 09:21:37 72° 105° (ESE) 09:28:45 435.675
TIGRISAT 28 Sep 09:18:02 09:20:48 17° 61° (ENE) 09:23:35 435.000
CUBEBUG 2 28 Sep 09:18:23 09:22:22 37° 97° (E) 09:26:26 437.445
PRISM 28 Sep 09:22:09 09:26:17 63° 258° (WSW) 09:30:28 437.425
FUNcube-1 28 Sep 09:22:18 09:25:14 18° 91° (E) 09:28:12 145.935
COMPASS 1 28 Sep 09:30:29 09:34:42 63° 100° (E) 09:38:53 437.405
NOAA 15 28 Sep 09:30:38 09:33:16 14° 307° (NW) 09:35:54 137.62
BEESAT 3 28 Sep 09:32:52 09:36:50 66° 49° (NE) 09:40:47 437.485
UWE-3 28 Sep 09:35:30 09:39:32 37° 97° (E) 09:43:38 435.000/436.395/437.385
Cubesat XI-IV 28 Sep 09:48:52 09:51:00 12° 308° (NW) 09:53:07 437.490
CUTE-I 28 Sep 09:48:55 09:50:59 12° 308° (NW) 09:53:04 437.470
CINEMA 3 28 Sep 09:51:07 09:54:48 31° 292° (WNW) 09:58:32 145.822/145.860
JAS-2 28 Sep 09:53:04 09:56:40 15° 44° (NE) 10:00:25 435.910
UNISAT 6 28 Sep 09:57:18 10:01:19 41° 69° (ENE) 10:05:20 437.425
CUTE 1.7 + AOD 2 28 Sep 09:59:40 10:03:35 34° 292° (WNW) 10:07:28 437.475
SEEDS 28 Sep 10:00:04 10:04:10 46° 289° (WNW) 10:08:14 437.485
Oscar 11 28 Sep 10:00:56 10:05:06 43° 98° (E) 10:09:15 145.826/435.025
CANX-2 28 Sep 10:01:09 10:04:54 30° 293° (WNW) 10:08:38 2200.000
DELFI C3 28 Sep 10:02:41 10:05:32 18° 92° (E) 10:08:22 145.870
ZACube-1 28 Sep 10:03:43 10:07:54 47° 99° (E) 10:12:10 437.345
Cosmos 2499 28 Sep 10:04:30 10:11:33 64° 283° (WNW) 10:18:36 435.465 / 435.565
HUMSAT D 28 Sep 10:20:50 10:23:29 16° 90° (E) 10:26:08 437.325/437.525
AAUSAT CUBESAT 2 28 Sep 10:21:14 10:25:18 48° 289° (WNW) 10:29:20 437.432
QB50P2 28 Sep 10:24:34 10:26:50 14° 59° (ENE) 10:29:05 145.880/145.840
POLYITAN 1 28 Sep 10:26:48 10:29:02 14° 60° (ENE) 10:31:17 437.675
BEESAT 2 28 Sep 10:29:27 10:33:28 69° 235° (SW) 10:37:27 435.950
ANTELSAT 28 Sep 10:32:24 10:36:40 87° 256° (WSW) 10:40:57 437.575/2403.000
GONETS M04 28 Sep 10:37:25 10:45:44 43° 291° (WNW) 10:54:07
TIGRISAT 28 Sep 10:52:55 10:57:06 57° 259° (W) 11:01:19 435.000
CUBEBUG 2 28 Sep 10:55:22 10:58:52 25° 294° (WNW) 11:02:25 437.445
FUNcube-1 28 Sep 10:57:34 11:01:46 53° 288° (WNW) 11:06:03 145.935
DUCHIFAT 1 28 Sep 11:02:28 11:05:57 26° 66° (ENE) 11:09:27 145.980
HO-68 28 Sep 11:02:53 11:08:47 29° 305° (NW) 11:14:40 435.675
BUGSAT 1 28 Sep 11:04:29 11:06:20 13° 59° (ENE) 11:08:09 437.445
QB50P1 28 Sep 11:04:57 11:08:39 31° 67° (ENE) 11:12:23 145.935-145.965
COMPASS 1 28 Sep 11:07:14 11:09:48 16° 299° (WNW) 11:12:20 437.405
BEESAT 3 28 Sep 11:11:41 11:14:02 15° 248° (WSW) 11:16:22 437.485
UWE-3 28 Sep 11:12:21 11:15:51 25° 295° (WNW) 11:19:25 435.000/436.395/437.385
POPSAT HIP 1 28 Sep 11:18:14 11:22:11 41° 70° (ENE) 11:26:09 437.405
AIST 2 28 Sep 11:18:47 11:22:16 24° 37° (NE) 11:25:44 435.215
